TimeCDT,TemperatureF,Dew PointF,Humidity,Sea Level PressureIn,VisibilityMPH,Wind Direction,Wind SpeedMPH,Gust SpeedMPH,PrecipitationIn,Events,Conditions,WindDirDegrees,DateUTC
12:15 AM,39.2,30.2,70,30.01,10.0,NNE,5.8,-,N/A,,Clear,20,2012-11-02 05:15:00
12:35 AM,39.2,30.2,70,30.02,10.0,NNE,5.8,-,N/A,,Clear,20,2012-11-02 05:35:00
12:55 AM,39.2,30.2,70,30.02,10.0,North,4.6,-,N/A,,Clear,10,2012-11-02 05:55:00
1:15 AM,39.2,30.2,70,30.02,10.0,North,3.5,-,N/A,,Clear,10,2012-11-02 06:15:00
1:35 AM,39.2,30.2,70,30.02,10.0,NNE,4.6,-,N/A,,Clear,20,2012-11-02 06:35:00
1:55 AM,37.4,30.2,75,30.02,10.0,NNE,4.6,-,N/A,,Clear,20,2012-11-02 06:55:00
2:15 AM,37.4,30.2,75,30.03,10.0,North,4.6,-,N/A,,Clear,10,2012-11-02 07:15:00
2:35 AM,37.4,30.2,75,30.03,10.0,NNE,5.8,-,N/A,,Clear,20,2012-11-02 07:35:00
2:55 AM,37.4,30.2,75,30.04,10.0,NNE,4.6,-,N/A,,Clear,20,2012-11-02 07:55:00
3:15 AM,35.6,28.4,75,30.04,10.0,NNE,4.6,-,N/A,,Clear,20,2012-11-02 08:15:00
3:35 AM,35.6,28.4,75,30.04,10.0,Calm,Calm,-,N/A,,Clear,0,2012-11-02 08:35:00
3:55 AM,37.4,28.4,70,30.04,10.0,NNE,3.5,-,N/A,,Clear,30,2012-11-02 08:55:00
4:15 AM,35.6,28.4,75,30.03,10.0,NNE,4.6,-,N/A,,Clear,30,2012-11-02 09:15:00
4:35 AM,35.6,28.4,75,30.04,10.0,NE,5.8,-,N/A,,Clear,40,2012-11-02 09:35:00
4:55 AM,33.8,28.4,81,30.03,10.0,NE,5.8,-,N/A,,Clear,50,2012-11-02 09:55:00
5:15 AM,35.6,28.4,75,30.03,10.0,ENE,5.8,-,N/A,,Clear,60,2012-11-02 10:15:00
5:35 AM,35.6,28.4,75,30.03,10.0,ENE,5.8,-,N/A,,Clear,60,2012-11-02 10:35:00
5:55 AM,33.8,28.4,81,30.04,10.0,ENE,4.6,-,N/A,,Clear,70,2012-11-02 10:55:00
6:15 AM,33.8,26.6,75,30.04,10.0,East,4.6,-,N/A,,Clear,80,2012-11-02 11:15:00
6:35 AM,35.6,28.4,75,30.04,10.0,East,8.1,-,N/A,,Clear,80,2012-11-02 11:35:00
6:55 AM,35.6,28.4,75,30.04,10.0,ENE,8.1,-,N/A,,Clear,70,2012-11-02 11:55:00
7:15 AM,35.6,28.4,75,30.04,10.0,East,6.9,-,N/A,,Clear,80,2012-11-02 12:15:00
7:35 AM,35.6,28.4,75,30.06,10.0,East,4.6,-,N/A,,Clear,100,2012-11-02 12:35:00
7:55 AM,35.6,28.4,75,30.07,10.0,East,4.6,-,N/A,,Clear,100,2012-11-02 12:55:00
8:15 AM,35.6,28.4,75,30.08,10.0,ESE,4.6,-,N/A,,Clear,110,2012-11-02 13:15:00
8:35 AM,35.6,28.4,75,30.08,10.0,ESE,4.6,-,N/A,,Clear,120,2012-11-02 13:35:00
9:15 AM,37.4,30.2,75,30.09,10.0,East,8.1,-,N/A,,Clear,100,2012-11-02 14:15:00
9:35 AM,39.2,30.2,70,30.08,10.0,East,11.5,-,N/A,,Clear,100,2012-11-02 14:35:00
9:55 AM,41.0,32.0,70,30.08,10.0,ESE,12.7,-,N/A,,Clear,110,2012-11-02 14:55:00
10:15 AM,42.8,32.0,66,30.07,10.0,ESE,11.5,-,N/A,,Clear,120,2012-11-02 15:15:00
10:35 AM,44.6,33.8,66,30.08,10.0,ESE,10.4,-,N/A,,Clear,110,2012-11-02 15:35:00
10:55 AM,44.6,33.8,66,30.07,10.0,ESE,13.8,-,N/A,,Clear,110,2012-11-02 15:55:00
11:15 AM,46.4,33.8,62,30.06,10.0,ESE,12.7,-,N/A,,Clear,110,2012-11-02 16:15:00
11:35 AM,48.2,33.8,58,30.06,10.0,ESE,12.7,-,N/A,,Clear,120,2012-11-02 16:35:00
11:55 AM,48.2,32.0,54,30.07,10.0,East,12.7,-,N/A,,Clear,100,2012-11-02 16:55:00
12:15 PM,50.0,32.0,50,30.06,10.0,East,11.5,-,N/A,,Clear,100,2012-11-02 17:15:00
12:35 PM,51.8,32.0,47,30.05,10.0,ESE,15.0,-,N/A,,Clear,120,2012-11-02 17:35:00
12:55 PM,51.8,32.0,47,30.05,10.0,East,12.7,16.1,N/A,,Clear,100,2012-11-02 17:55:00
1:15 PM,51.8,32.0,47,30.04,10.0,ESE,10.4,-,N/A,,Clear,110,2012-11-02 18:15:00
1:35 PM,51.8,32.0,47,30.03,10.0,ESE,9.2,-,N/A,,Clear,120,2012-11-02 18:35:00
1:55 PM,51.8,32.0,47,30.03,10.0,ESE,10.4,-,N/A,,Clear,120,2012-11-02 18:55:00
2:15 PM,51.8,30.2,44,30.02,10.0,East,15.0,18.4,N/A,,Clear,100,2012-11-02 19:15:00
2:35 PM,51.8,32.0,47,30.02,10.0,East,13.8,17.3,N/A,,Clear,90,2012-11-02 19:35:00
2:55 PM,51.8,30.2,44,30.01,10.0,ESE,12.7,-,N/A,,Clear,110,2012-11-02 19:55:00
3:15 PM,51.8,30.2,44,30.02,10.0,East,12.7,-,N/A,,Clear,100,2012-11-02 20:15:00
3:35 PM,51.8,30.2,44,30.02,10.0,ESE,10.4,-,N/A,,Clear,110,2012-11-02 20:35:00
3:55 PM,51.8,30.2,44,30.01,10.0,East,12.7,16.1,N/A,,Clear,100,2012-11-02 20:55:00
4:15 PM,51.8,32.0,47,30.02,10.0,ENE,9.2,-,N/A,,Clear,70,2012-11-02 21:15:00
4:35 PM,51.8,32.0,47,30.01,10.0,East,10.4,-,N/A,,Clear,80,2012-11-02 21:35:00
4:55 PM,51.8,32.0,47,30.01,10.0,East,10.4,-,N/A,,Clear,90,2012-11-02 21:55:00
5:15 PM,50.0,32.0,50,30.01,10.0,East,12.7,-,N/A,,Clear,80,2012-11-02 22:15:00
5:35 PM,50.0,32.0,50,30.00,10.0,ENE,11.5,-,N/A,,Clear,70,2012-11-02 22:35:00
5:55 PM,48.2,32.0,54,30.01,10.0,ENE,9.2,-,N/A,,Clear,70,2012-11-02 22:55:00
6:15 PM,48.2,32.0,54,30.01,10.0,East,10.4,-,N/A,,Clear,80,2012-11-02 23:15:00
6:35 PM,46.4,30.2,53,30.01,10.0,East,11.5,-,N/A,,Clear,80,2012-11-02 23:35:00
6:55 PM,46.4,30.2,53,30.02,10.0,East,10.4,-,N/A,,Clear,80,2012-11-02 23:55:00
7:15 PM,46.4,30.2,53,30.02,10.0,East,10.4,-,N/A,,Clear,90,2012-11-03 00:15:00
7:35 PM,46.4,30.2,53,30.03,10.0,East,9.2,-,N/A,,Clear,80,2012-11-03 00:35:00
7:55 PM,46.4,30.2,53,30.03,10.0,East,8.1,-,N/A,,Clear,80,2012-11-03 00:55:00
8:15 PM,44.6,30.2,57,30.04,10.0,East,6.9,-,N/A,,Clear,80,2012-11-03 01:15:00
8:35 PM,44.6,30.2,57,30.04,10.0,East,6.9,-,N/A,,Clear,90,2012-11-03 01:35:00
8:55 PM,44.6,30.2,57,30.03,10.0,East,8.1,-,N/A,,Clear,80,2012-11-03 01:55:00
9:15 PM,44.6,30.2,57,30.04,10.0,East,8.1,-,N/A,,Clear,80,2012-11-03 02:15:00
9:35 PM,44.6,30.2,57,30.05,10.0,NE,9.2,-,N/A,,Mostly Cloudy,50,2012-11-03 02:35:00
9:55 PM,44.6,30.2,57,30.05,10.0,NNE,9.2,-,N/A,,Overcast,30,2012-11-03 02:55:00
10:15 PM,44.6,32.0,61,30.07,10.0,NE,5.8,-,N/A,,Overcast,40,2012-11-03 03:15:00
10:35 PM,44.6,32.0,61,30.08,10.0,NE,6.9,-,N/A,,Overcast,40,2012-11-03 03:35:00
10:55 PM,44.6,32.0,61,30.07,10.0,ENE,8.1,-,N/A,,Overcast,60,2012-11-03 03:55:00
11:15 PM,44.6,32.0,61,30.08,10.0,NE,6.9,-,N/A,,Overcast,50,2012-11-03 04:15:00
11:35 PM,44.6,32.0,61,30.08,10.0,ENE,6.9,-,N/A,,Overcast,60,2012-11-03 04:35:00
11:55 PM,44.6,30.2,57,30.07,10.0,ENE,9.2,-,N/A,,Overcast,70,2012-11-03 04:55:00